Location: Unspecified
(0.0000°N, 0.0000°E)
Time: 19:22:27
(UTC+00:00)

STARLINK-1172 - Pass Details

Date: 16 June 2025
Orbit: 546 x 548 km, 53.1° (Epoch: 20 July)

Event Time Altitude Azimuth Distance (km) Brightness Sun altitude
Rises 18:37:53 0° 353° (N) 2,700 7.6 -8.5°
Reaches altitude 10° 18:40:44 10° 14° (NNE) 1,811 6.4 -9.1°
Maximum altitude 18:43:27 17° 55° (NE) 1,421 5.4 -9.8°
Enters shadow 18:45:41 12° 91° (E) 1,696 5.5 -10.3°
